This demonstration page uses our WeatherBlox Daily Observations layout. Learn more.

Left ArrowRight Arrow

39.51506, -84.39828

Hourly Observations for February 10, 2016

Temp ( °F °C ) Dew Point ( °F °C ) Humidity (%) Winds ( mph kmh ) Pressure ( in mb ) Visibility ( mi km ) Precip ( " mm )
12:15 am 00:15 Mostly Cloudy 17 -8.2 8 -13.4 67 67 WSW 9 15 30.00 1016 10 16 0.00 0.00
12:35 am 00:35 Partly Cloudy 17 -8.5 8 -13.1 70 70 WSW 6 9 30.00 1016 10 16 0.00 0.00
12:55 am 00:55 Clear 15 -9.3 8 -13.2 74 74 WSW 8 13 30.00 1016 10 16 0.00 0.00
1:15 am 01:15 Clear 15 -9.7 8 -13.5 74 74 WSW 8 13 30.00 1016 10 16 0.00 0.00
1:35 am 01:35 Clear 14 -9.8 8 -13.5 75 75 WSW 7 11 30.00 1016 10 16 0.00 0.00
1:55 am 01:55 Clear with Light Snow 14 -9.8 8 -13.5 75 75 WSW 8 13 30.00 1016 10 16 0.00 0.00
2:15 am 02:15 Partly Cloudy 14 -9.8 8 -13.5 75 75 WSW 8 13 30.00 1016 10 16 0.00 0.00
2:35 am 02:35 Cloudy 14 -9.8 8 -13.5 75 75 SW 8 13 30.00 1016 10 16 0.00 0.00
2:55 am 02:55 Cloudy 16 -9 9 -12.9 74 74 WSW 9 15 30.00 1016 10 16 0.00 0.00
3:15 am 03:15 Cloudy 17 -8.5 9 -12.6 73 73 WSW 8 13 30.00 1016 10 16 0.00 0.00
3:35 am 03:35 Cloudy with Light Snow 17 -8.5 10 -12.5 73 73 WSW 8 13 30.00 1016 5 8 0.00 0.00
3:55 am 03:55 Cloudy with Light Snow 17 -8.5 10 -12.2 75 75 SW 7 11 30.00 1016 7 11 0.00 0.00
4:15 am 04:15 Cloudy with Light Snow 17 -8.5 10 -12.1 76 76 WSW 8 13 30.00 1016 5 8 0.00 0.00
4:35 am 04:35 Cloudy with Light Snow 17 -8.5 10 -12 76 76 WSW 7 11 30.00 1016 3 5 0.00 0.00
4:55 am 04:55 Cloudy with Light Snow 17 -8.5 10 -12 76 76 SW 9 15 30.00 1016 5 8 0.00 0.00
5:15 am 05:15 Cloudy with Light Snow 17 -8.5 11 -11.8 77 77 WSW 8 13 30.00 1016 4 6 0.00 0.00
5:35 am 05:35 Cloudy with Light Snow 17 -8.5 11 -11.8 77 77 WSW 8 13 30.00 1016 5 8 0.00 0.00
5:55 am 05:55 Cloudy with Light Snow 17 -8.3 11 -11.6 77 77 WSW 8 13 30.00 1016 5 8 0.00 0.00
6:15 am 06:15 Cloudy 18 -7.9 11 -11.9 73 73 W 12 19 30.03 1017 10 16 0.00 0.00
6:35 am 06:35 Cloudy with Light Snow 18 -7.7 11 -11.6 74 74 WSW 8 13 30.03 1017 7 11 0.00 0.00
6:55 am 06:55 Cloudy with Light Snow 18 -8 11 -11.5 76 76 WSW 10 17 30.03 1017 3 4 0.00 0.00
7:15 am 07:15 Cloudy with Light Snow 17 -8.1 11 -11.7 76 76 W 10 17 30.03 1017 4 6 0.00 0.00
7:35 am 07:35 Cloudy with Light Snow 17 -8.3 10 -12 75 75 WSW 8 13 30.03 1017 4 6 0.00 0.00
7:55 am 07:55 Cloudy with Light Snow 17 -8.5 9 -12.6 73 73 W 12 19 30.03 1017 5 8 0.00 0.00
8:15 am 08:15 Cloudy with Light Snow 17 -8.5 9 -12.7 72 72 W 12 19 30.03 1017 5 8 0.00 0.00
8:35 am 08:35 Cloudy 17 -8.5 8 -13.1 70 70 W 14 22 30.06 1018 10 16 0.00 0.00
8:55 am 08:55 Cloudy with Haze 17 -8.5 9 -13 70 70 W 14 22 30.06 1018 5 8 0.00 0.00
9:15 am 09:15 Cloudy 17 -8.5 8 -13.4 68 68 WSW 14 22 30.06 1018 7 11 0.00 0.00
9:35 am 09:35 Cloudy with Light Snow 17 -8.3 8 -13.2 68 68 WSW 14 22 30.06 1018 7 11 0.00 0.00
9:55 am 09:55 Cloudy with Light Snow 18 -8 9 -13 68 68 W 14 22 30.06 1018 4 6 0.00 0.00
10:15 am 10:15 Cloudy with Light Snow 19 -7.2 9 -12.8 65 65 W 15 24 30.03 1017 3 5 0.00 0.00
10:35 am 10:35 Cloudy with Light Snow 19 -7.2 10 -12.4 67 67 W 12 19 30.09 1019 4 6 0.00 0.00
10:55 am 10:55 Cloudy with Light Snow 19 -7 10 -12.2 67 67 W 13 20 30.09 1019 3 4 0.00 0.00
11:15 am 11:15 Cloudy with Haze 19 -7 9 -13 63 63 W 14 22 30.09 1019 5 8 0.00 0.00
11:35 am 11:35 Cloudy 19 -7 8 -13.2 62 62 W 18 30 30.09 1019 10 16 0.00 0.00
11:55 am 11:55 Cloudy with Light Snow 19 -7 9 -12.8 64 64 W 17 28 30.09 1019 3 5 0.00 0.00
12:15 pm 12:15 Cloudy with Light Snow 19 -7 9 -12.9 63 63 W 17 28 30.09 1019 3 5 0.00 0.00
12:35 pm 12:35 Cloudy with Light Snow 19 -7 8 -13.2 62 62 W 13 20 30.09 1019 4 6 0.00 0.00
12:55 pm 12:55 Cloudy with Light Snow 20 -6.8 8 -13.5 59 59 W 16 26 30.09 1019 7 11 0.00 0.00
1:15 pm 13:15 Cloudy 20 -6.4 7 -13.8 56 56 W 15 24 30.06 1018 10 16 0.00 0.00
1:35 pm 13:35 Cloudy 19 -7 6 -14.3 56 56 WNW 14 22 30.09 1019 10 16 0.00 0.00
1:55 pm 13:55 Cloudy with Light Snow 19 -7 8 -13.5 60 60 W 17 28 30.09 1019 7 11 0.00 0.00
2:15 pm 14:15 Cloudy 19 -7 7 -13.8 59 59 WNW 12 19 30.09 1019 10 16 0.00 0.00
2:35 pm 14:35 Cloudy 19 -7 7 -14 58 58 W 14 22 30.09 1019 10 16 0.00 0.00
2:55 pm 14:55 Cloudy 19 -7 6 -14.5 55 55 W 14 22 30.09 1019 10 16 0.00 0.00
3:15 pm 15:15 Cloudy 19 -7 6 -14.2 57 57 W 13 20 30.09 1019 10 16 0.00 0.00
3:35 pm 15:35 Cloudy 19 -7 7 -14 58 58 W 16 26 30.09 1019 7 11 0.00 0.00
3:55 pm 15:55 Cloudy 19 -7 6 -14.7 55 55 W 15 24 30.12 1020 10 16 0.00 0.00
4:15 pm 16:15 Cloudy 19 -7.4 4 -15.3 54 54 W 12 19 30.12 1020 10 16 0.00 0.00
4:35 pm 16:35 Cloudy 19 -7.2 5 -15.1 54 54 W 15 24 30.12 1020 10 16 0.00 0.00
4:55 pm 16:55 Cloudy 19 -7.3 4 -15.6 52 52 WNW 12 19 30.12 1020 10 16 0.00 0.00
5:15 pm 17:15 Cloudy 18 -7.7 4 -15.8 53 53 WNW 12 19 30.12 1020 10 16 0.00 0.00
5:35 pm 17:35 Mostly Cloudy 17 -8.5 3 -16 55 55 WNW 13 20 30.15 1021 10 16 0.00 0.00
5:55 pm 17:55 Cloudy 17 -8.5 4 -15.8 56 56 WNW 9 15 30.15 1021 10 16 0.00 0.00
6:15 pm 18:15 Cloudy 17 -8.5 3 -15.9 56 56 WNW 9 15 30.15 1021 10 16 0.00 0.00
6:35 pm 18:35 Cloudy 17 -8.5 4 -15.6 57 57 W 7 11 30.15 1021 10 16 0.00 0.00
6:55 pm 18:55 Cloudy 17 -8.5 4 -15.7 56 56 WNW 8 13 30.18 1022 10 16 0.00 0.00
7:15 pm 19:15 Cloudy 17 -8.5 4 -15.5 57 57 W 7 11 30.18 1022 10 16 0.00 0.00
7:35 pm 19:35 Cloudy 17 -8.5 4 -15.5 57 57 W 7 11 30.18 1022 10 16 0.00 0.00
7:55 pm 19:55 Mostly Cloudy 17 -8.5 4 -15.4 58 58 WNW 8 13 30.18 1022 10 16 0.00 0.00
8:15 pm 20:15 Partly Cloudy 17 -8.5 5 -15 60 60 W 5 7 30.18 1022 10 16 0.00 0.00
8:35 pm 20:35 Mostly Cloudy N/A N/A N/A undefined N/A N/A N/A 0.00 0.00
8:55 pm 20:55 Mostly Cloudy 15 -9.7 4 -15.8 61 61 WSW 5 7 30.21 1023 10 16 0.00 0.00
9:15 pm 21:15 Cloudy 14 -9.8 4 -15.4 64 64 W 3 6 30.21 1023 10 16 0.00 0.00
9:35 pm 21:35 Cloudy 14 -9.8 7 -14 72 72 Calm 30.21 1023 10 16 0.00 0.00
9:55 pm 21:55 Cloudy 14 -9.8 6 -14.5 69 69 WSW 3 6 30.21 1023 10 16 0.00 0.00
10:15 pm 22:15 Cloudy with Light Snow 17 -8.6 8 -13.6 67 67 Calm 30.21 1023 10 16 0.00 0.00
10:35 pm 22:35 Cloudy 17 -8.5 7 -14 65 65 W 3 6 30.21 1023 10 16 0.00 0.00
10:55 pm 22:55 Cloudy 17 -8.5 6 -14.4 63 63 W 3 6 30.21 1023 10 16 0.00 0.00
11:15 pm 23:15 Cloudy 17 -8.2 6 -14.7 60 60 NW 7 11 30.21 1023 10 16 0.00 0.00
11:35 pm 23:35 Cloudy 17 -8.5 5 -14.8 61 61 WNW 7 11 30.21 1023 10 16 0.00 0.00
11:55 pm 23:55 Cloudy 17 -8.5 6 -14.5 62 62 WNW 6 9 30.21 1023 10 16 0.00 0.00

Powered by AerisWeather